#timestamp,LO_Frequency,Hit,StdDev 
1579330815.8,286047000.5,N
1579330835.6,286047000.3,N
1579330855.4,286047002.5,N
1579330875.3,286047000.8,N
1579330895.1,286046998.2,N
1579330915.9,286046998.3,N
1579330935.7,286046998.7,N
1579330955.5,286047001.2,N
1579330975.4,286046998.8,N
1579330995.2,286046999.5,N
1579331015.1,286046997.7,N
1579331016.0,286046997.7,N
1579331035.8,286046997.9,N
1579331055.6,286046997.7,N
1579331075.5,286046996.9,N
1579331095.3,286046996.5,N
1579331115.1,286046996.7,N
1579331135.9,286046998.3,N
1579331155.7,286046999.3,N
1579331175.6,286046997.0,N
1579331195.4,286046995.5,N
1579331215.2,286046995.1,N
1579331235.1,286046994.9,N
1579331236.0,286046994.9,N
1579331255.8,286046996.7,N
1579331275.6,286046999.1,N
1579331295.5,286046998.3,N
1579331315.3,286047001.1,N
1579331335.1,286047001.2,N
1579331355.9,286046996.6,N
1579331375.7,286046996.9,N
1579331395.6,286046995.6,N
1579331415.4,286046996.0,N
1579331435.2,286046994.7,N
1579331455.1,286046996.3,N
1579331456.0,286046996.3,N
1579331475.8,286046994.5,Y
1579331495.7,286046997.6,P
1579331515.5,286046995.9,P
1579331535.3,286046995.5,P
1579331555.2,286046996.1,Y
1579331575.0,286046999.9,P
1579331575.9,286046999.9,N
1579331595.7,286046999.8,N
1579331615.6,286046998.8,N
1579331635.4,286047000.9,N
1579331655.3,286047001.7,N
1579331675.1,286047001.9,N
1579331676.0,286047001.9,N
1579331695.8,286047000.4,N
1579331715.7,286047002.7,N
1579331735.5,286046998.2,N
1579331755.3,286046998.4,N
1579331775.2,286046996.5,N
1579331795.0,286046999.2,N
1579331795.9,286046999.2,N
1579331815.8,286046999.1,N
1579331835.6,286046998.0,N
1579331855.4,286046995.1,N
1579331875.3,286046997.7,N
1579331895.1,286046997.4,N
1579331915.8,286047000.2,N
1579331935.7,286047001.5,N
1579331955.5,286047003.8,N
1579331975.4,286047003.8,N
1579331995.2,286047005.3,N
1579332015.0,286047003.3,N
1579332015.9,286047003.3,N
1579332035.8,286047004.3,N
1579332055.6,286047002.2,N
1579332075.4,286047002.4,N
1579332095.3,286047000.4,N
1579332115.1,286047002.5,N
1579332135.9,286047002.5,N
1579332155.7,286046999.8,N
1579332175.5,286046998.9,N
1579332195.4,286046998.1,N
1579332215.2,286046998.4,N
1579332235.0,286046998.7,N
1579332235.9,286046998.7,N
1579332255.8,286047001.0,N
1579332275.6,286046998.6,N
1579332295.5,286046996.9,N
1579332315.3,286046997.0,N
1579332335.1,286047001.2,N
1579332355.9,286046998.1,N
1579332375.7,286046999.6,N
1579332395.6,286046999.4,N
1579332415.4,286046998.5,N
1579332435.2,286047000.7,N
1579332455.1,286046998.8,N
1579332456.0,286046998.8,N
1579332475.8,286047000.1,N
1579332495.6,286046998.5,N
1579332515.5,286047001.1,N
1579332535.3,286046998.1,N
1579332555.2,286046999.9,N
1579332575.9,286046999.0,N
1579332595.7,286046999.6,N
1579332615.6,286046997.1,N
1579332635.4,286046998.6,N
1579332655.2,286047000.3,N
1579332675.1,286047001.0,N
1579332676.0,286047001.0,N
1579332695.8,286047001.2,N
1579332715.7,286046998.1,N
1579332735.5,286046999.8,N
1579332755.3,286046998.2,N
1579332775.2,286046998.9,N
1579332795.0,286046998.6,N
1579332795.9,286046998.6,N
1579332815.7,286046998.6,N
1579332835.6,286046998.1,N
1579332855.4,286047001.1,N
1579332875.3,286047000.7,N
1579332895.1,286047001.2,N
1579332896.0,286047001.2,N
1579332915.8,286047001.2,N
1579332935.7,286047000.8,N
1579332955.5,286046998.9,N
1579332975.3,286046998.1,N
1579332995.2,286047000.8,N
1579333015.0,286047000.9,N
1579333015.9,286047000.9,N
1579333035.8,286047002.6,N
1579333055.6,286047000.4,N
1579333075.4,286047000.6,N
1579333095.3,286046998.1,N
1579333115.1,286046999.7,N
1579333135.8,286047001.8,N
1579333155.7,286047000.5,N
1579333175.5,286046998.3,N
1579333195.4,286046998.3,N
1579333215.2,286046999.2,N
1579333235.0,286046999.1,N
1579333235.9,286046999.1,N
1579333255.8,286047000.1,N
1579333275.6,286047000.8,N
1579333295.4,286047001.0,N
1579333315.3,286047002.5,N
1579333335.1,286047000.1,N
1579333355.9,286047000.0,N
1579333375.7,286047002.8,N
1579333395.5,286047002.0,N
1579333415.4,286047002.4,N
1579333435.2,286047000.4,N
1579333455.0,286046998.1,N
1579333456.0,286046998.1,N
1579333475.8,286047001.2,N
1579333495.6,286047001.2,N
1579333515.5,286047000.4,N
1579333535.3,286047000.9,N
1579333555.1,286047000.0,N
1579333575.9,286046998.3,N
1579333595.7,286047001.1,N
1579333615.5,286046998.9,N
1579333635.4,286046998.3,N
1579333655.2,286046999.7,N
1579333675.1,286046998.1,N
1579333676.0,286046998.1,N
1579333695.8,286047000.7,N
1579333715.6,286047000.5,N
1579333735.5,286046998.5,N
1579333755.3,286047001.2,N
1579333775.2,286046998.2,N
1579333795.9,286046998.4,N
1579333815.7,286046999.4,N
1579333835.6,286046999.6,N
1579333855.4,286046997.0,N
1579333875.2,286046997.4,N
1579333895.1,286046995.3,Y
1579333896.0,286046995.3,P
1579333915.8,286046997.3,N
1579333935.7,286046997.3,N
1579333955.5,286046996.9,N
1579333975.3,286046996.8,N
1579333995.2,286046996.7,N
1579334015.0,286046999.2,N
1579334015.9,286046999.2,N
1579334035.8,286046998.6,N
1579334055.6,286047001.1,N
1579334075.4,286047000.7,N
1579334095.3,286046996.5,N
1579334115.1,286046997.2,N
1579334135.8,286047001.2,N
1579334155.7,286047000.2,N
1579334175.5,286047002.4,N
1579334195.4,286047002.2,N
1579334215.2,286046999.9,N
1579334235.0,286046999.2,N
1579334235.9,286046999.2,N
1579334255.8,286047000.5,N
1579334275.6,286047000.5,N
1579334295.5,286046996.7,N
1579334315.3,286046997.2,N
1579334335.1,286046999.2,N
1579334355.9,286046997.7,N
1579334375.7,286046997.8,N
1579334395.5,286046999.1,N
